Other Public Products
Issued by NWS Grand Forks, ND

Home | Current Version | Previous Version | Graphics & Text | Print | Product List | Glossary On
Versions: 1 2 3 4 5 6 7 8 9 10 11 12 13 14 15 16 17 18 19 20 21 22 23 24 25 26 27 28 29 30 31 32 33 34 35 36 37 38 39 40 41 42 43 44 45 46 47 48 49 50
000
FPUS83 KFGF 121210
OPUFGF
PRAIRIE TO PINES WEATHER ROUNDUP
NATIONAL WEATHER SERVICE EASTERN NORTH DAKOTA/GRAND FORKS ND
600 AM CST FRI FEB 12 2016

 **SATELLITE DATA USED TO AUGMENT SKY COVER AT AUTOMATED STATIONS**
 *****  WEATHER ACROSS EASTERN NORTH DAKOTA  *****

CITY           SKY/WX    TMP DP  RH WIND       PRES   REMARKS
GRAND FORKS    CLEAR      0  -9  65 N15       30.51R WCI -19
6HR MIN TEMP:   0; 6HR MAX TEMP:   8;

GRAND FORKS AF CLOUDY    -2  -9  69 N12       30.51R WCI -19
GRAND CITY NWS NOT AVBL
BUXTON         NOT AVBL
DEVILS LAKE    CLOUDY   -10 -14  82 NW13      30.49R WCI -30
6HR MIN TEMP: -10; 6HR MAX TEMP:   2;

FARGO          CLEAR      2  -7  66 N21       30.47R WCI -20
6HR MIN TEMP:   2; 6HR MAX TEMP:  13;

WAHPETON ARPT  MOSUNNY    3  -6  66 NW12      30.45R WCI -13
$$

 *****  WEATHER ACROSS CENTRAL AND WESTERN NORTH DAKOTA  *****

CITY           SKY/WX    TMP DP  RH WIND       PRES   REMARKS
JAMESTOWN      CLOUDY     1  -5  75 N12       30.46R WCI -16
6HR MIN TEMP:   1; 6HR MAX TEMP:  11; 6HR PCP: TRACE;

BISMARCK       CLOUDY    13   6  74 N14       30.48R WCI  -2
6HR MIN TEMP:  13; 6HR MAX TEMP:  21; 6HR PCP: TRACE;

MINOT          CLOUDY     0  -9  65 NW9       30.51R WCI -15
6HR MIN TEMP:   0; 6HR MAX TEMP:  17; 6HR PCP: TRACE;

MINOT AFB      CLOUDY    -1  -8  72 NW6       30.51R WCI -13
6HR MIN TEMP:  -1; 6HR MAX TEMP:  12; 6HR PCP: TRACE;

GARRISON         N/A      1  -5  75 N12       30.47R WCI -16
6HR MIN TEMP:   1; 6HR MAX TEMP:  18;

WILLISTON      CLOUDY     8   2  76 NE9       30.50R WCI  -5
6HR MIN TEMP:   8; 6HR MAX TEMP:  20; 6HR PCP: TRACE;

DICKINSON      CLOUDY    16  11  80 NE8       30.37R WCI   5
6HR MIN TEMP:  16; 6HR MAX TEMP:  21;

HETTINGER      CLOUDY    20  16  84 N10       30.38R WCI   9
6HR MIN TEMP:  20; 6HR MAX TEMP:  24;

$$

 *****  OTHER OBSERVATIONS NORTHEAST NORTH DAKOTA  *****

CITY           SKY/WX    TMP DP  RH WIND       PRES   REMARKS
WALHALLA       FAIR      -2  -9  71 N12       30.55R WCI -20
LANGDON        FAIR     -17 -22  76 N9        30.45R WCI -36
CAVALIER       FAIR      -2  -9  71 N20G26    30.53R WCI -25
GRAFTON        FAIR      -2  -9  71 N18G26    30.55R WCI -24
CANDO          NOT AVBL
FORT TOTTEN      N/A     -7 -12  78 CALM      29.95
ROLLA          FAIR     -11 -17  77 N13       30.48R WCI -32
RUGBY          FAIR     -11 -13  92 N3        30.51R
 ***** THE ABOVE OBSERVATIONS ARE NON NWS ARE NOT QUALITY
        CONTROLLED AND MAY MIS-REPORT RAIN FOR SNOW...
$$

 *****  OTHER OBSERVATIONS SOUTHEAST NORTH DAKOTA *****

CITY           SKY/WX    TMP DP  RH WIND       PRES   REMARKS
COOPERSTOWN    NOT AVBL
VALLEY CITY    FAIR      -2  -8  78 NW10      30.47R WCI -19
OAKES          FAIR       5   1  85 N15       30.44R WCI -13
GWINNER        FAIR       5   0  78 N9        30.45R WCI  -9
SHEYENNE NWR     N/A      1  -8  64 N7        29.95S WCI -12
BUFFALO        NOT AVBL
WYNDMERE         N/A      1  -6  71 NW8         N/A  WCI -12
 ***** THE ABOVE OBSERVATIONS ARE NON NWS ARE NOT QUALITY
       CONTROLLED AND MAY MIS-REPORT RAIN FOR SNOW...
$$

  *****  WEATHER ACROSS NORTHERN MINNESOTA  *****

CITY           SKY/WX    TMP DP  RH WIND       PRES   REMARKS
FLAG ISLAND    CLEAR    -11 -18  70 NW17      30.37R WCI -35
WARROAD        CLEAR     -9 -17  70 NW9G16    30.40R WCI -27
ROSEAU         CLEAR     -8 -15  71 N15       30.43R WCI -29
HALLOCK        CLEAR     -6 -13  71 N16       30.50R WCI -28
THF RVR FALLS  CLEAR     -6 -17  59 NW17      30.43R WCI -28
6HR MIN TEMP:  -6; 6HR MAX TEMP:   3;

HALSTAD        NOT AVBL
FOSSTON        CLEAR     -9 -13  84 NW10      30.39R WCI -28
BAUDETTE       CLEAR    -10 -17  71 NW16      30.34R WCI -33
6HR MIN TEMP: -10; 6HR MAX TEMP:   0;

WASKISH        PTCLDY    -8 -13  77 NW9G16    30.34R WCI -25
CROOKSTON      CLEAR     -2  -9  71 N15       30.49R WCI -22
$$
  *****  WEATHER ACROSS CENTRAL AND WEST MINNESOTA  *****

CITY           SKY/WX    TMP DP  RH WIND       PRES   REMARKS
BEMIDJI        MOCLDY    -7 -12  78 NW13      30.32R WCI -26
PARK RAPIDS    CLEAR     -2  -9  72 N14       30.30R WCI -21
6HR MIN TEMP:  -2; 6HR MAX TEMP:   8;

WADENA         CLEAR     -2  -8  78 NW9       30.32R WCI -18
DETROIT LAKES  CLEAR      0  -6  78 N18       30.37R WCI -22
MOORHEAD       MOCLDY     1  -6  71 N13       30.47R WCI -16
FERGUS FALLS   CLEAR      1  -6  71 N10       30.44R WCI -14
ELBOW LAKE     FAIR       2  -4  74 NW15      30.39R WCI -16
6HR MIN TEMP:   2; 6HR MAX TEMP:   9;

MORRIS MN      MOCLDY     7   1  78 NW16      30.38R HAZE    WCI -11
STAPLES        CLEAR      0  -6  78 NW9       30.30R WCI -16
WHEATON        CLEAR      7   0  72 NW15G21   30.46R WCI -11
$$
  *****  WEATHER ELSEWHERE ACROSS MINNESOTA  *****

CITY           SKY/WX    TMP DP  RH WIND       PRES   REMARKS
DULUTH         CLEAR      0  -8  69 NW16G29   30.14R WCI -20
6HR MIN TEMP:   0; 6HR MAX TEMP:   9;

INTRNTL FALLS  CLOUDY    -9 -15  75 NW16      30.28R WCI -32
6HR MIN TEMP:  -9; 6HR MAX TEMP:   1;

ELY            MOCLDY    -6 -11  77 NW9G18    30.15R HAZE    WCI -22
CLOQUET        CLEAR      1  -6  71 W9        30.18R WCI -14
BRAINERD       CLEAR      2  -5  72 NW12      30.28R WCI -15
6HR MIN TEMP:   2; 6HR MAX TEMP:  11;

HIBBING        CLOUDY    -5 -11  75 NW23G30   30.19R WCI -30
6HR MIN TEMP:  -5; 6HR MAX TEMP:   5; 6HR PCP: TRACE;

ALEXANDRIA     CLEAR      3  -5  69 NW15      30.32R WCI -16
6HR MIN TEMP:   3; 6HR MAX TEMP:  12;

SAINT CLOUD    CLEAR      4  -2  76 NW12      30.29R WCI -12
6HR MIN TEMP:   2; 6HR MAX TEMP:  13;

MINNEAPOLIS    PTCLDY     9   2  73 NW16G28   30.28R WCI  -8
6HR MIN TEMP:   9; 6HR MAX TEMP:  15;

$$

  *****  WEATHER ACROSS SOUTH DAKOTA  *****

CITY           SKY/WX    TMP DP  RH WIND       PRES   REMARKS
SIOUX FALLS    CLOUDY    15  10  80 N14       30.36R WCI   0
6HR MIN TEMP:  13; 6HR MAX TEMP:  19; 6HR PCP: TRACE;

BROOKINGS      CLOUDY    11   7  84 N16       30.34R WCI  -6
WATERTOWN      CLOUDY    10   4  76 N12       30.35R WCI  -5
6HR MIN TEMP:   8; 6HR MAX TEMP:  15;

HURON          CLOUDY    15  11  83 N9        30.43R WCI   3
6HR MIN TEMP:  15; 6HR MAX TEMP:  18;

SISSETON         N/A      5  -2  72 N16       30.43R WCI -14
ABERDEEN       CLOUDY    13   6  74 N15       30.45R WCI  -3
6HR MIN TEMP:  11; 6HR MAX TEMP:  15;

MITCHELL       CLOUDY    17  12  80 N16       30.41R WCI   2
PIERRE         CLOUDY    21  16  81 N9        30.41R WCI  11
6HR MIN TEMP:  21; 6HR MAX TEMP:  28;

MOBRIDGE       CLOUDY    20  13  74 N6        30.38R WCI  12
RAPID CITY     CLOUDY    30  27  88 NE12      30.32R WCI  20
6HR MIN TEMP:  30; 6HR MAX TEMP:  31;

$$

  *****  SOME WEATHER IN NEARBY STATES *****

CITY           SKY/WX    TMP DP  RH WIND       PRES   REMARKS
GLASGOW MT     CLOUDY    20  16  84 E16       30.40R WCI   6
6HR MIN TEMP:  20; 6HR MAX TEMP:  29;

GREAT FALLS MT CLOUDY    33  28  81 E9        30.22F
6HR MIN TEMP:  27; 6HR MAX TEMP:  34;

CHEYENNE WY    CLOUDY    32  24  72 CALM      30.27R
6HR MIN TEMP:  29; 6HR MAX TEMP:  37;

SCOTTSBLUFF NE CLOUDY    30  26  85 N7        30.27S WCI  23
6HR MIN TEMP:  29; 6HR MAX TEMP:  34;

OMAHA NE       CLOUDY    20  17  88 N15       30.35R WCI   6
6HR MIN TEMP:  20; 6HR MAX TEMP:  24;

DES MOINES IA  FLURRIES  20  13  74 N16       30.29R WCI   6
6HR MIN TEMP:  19; 6HR MAX TEMP:  20; 6HR PCP: TRACE;

DAVENPORT IA   CLOUDY    20  16  84 W12       30.21R WCI   8
6HR MIN TEMP:  16; 6HR MAX TEMP:  20;

CHICAGO IL     CLOUDY    19   7  59 W10       30.14F WCI   7
6HR MIN TEMP:  18; 6HR MAX TEMP:  20;

EAU CLAIRE WI  CLOUDY    12   2  64 N8        30.19R WCI   0
6HR MIN TEMP:  12; 6HR MAX TEMP:  14;

LA CROSSE WI   MOCLDY    13   7  77 NW13      30.21R WCI  -2
6HR MIN TEMP:  13; 6HR MAX TEMP:  15; 6HR PCP: TRACE;

$$

  *****  SOME NATIONAL WEATHER *****

CITY           SKY/WX    TMP DP  RH WIND       PRES   REMARKS
LA GUARDIA NY  CLEAR     17   1  49 NW16      30.26F WCI   2       C1F1C2F2C3F3C4F4C5F5C6F6C7F7C8F8C9F9CaFaCbFbCcFcCdFdCe!


USA.gov is the U.S. government's official web portal to all federal, state and local government web resources and services.